Regional Weather Roundup
Issued by NWS Upton, NY

Current Version | Previous Version | Text Only | Print | Product List | Glossary On
Versions: 1 2 3 4 5 6 7 8 9 10 11 12 13 14 15 16 17 18 19 20 21 22 23 24 25 26 27 28
000 ASUS41 KOKX 192008 RWROKX REGIONAL WEATHER ROUNDUP NATIONAL WEATHER SERVICE NEW YORK NY 300 PM EST THU JAN 19 2017 NOTE: "FAIR" INDICATES FEW OR NO CLOUDS BELOW 12,000 FEET WITH NO SIGNIFICANT WEATHER AND/OR OBSTRUCTIONS TO VISIBILITY. NYZ071-072-176-178-NJZ106-104-192100- NEW YORK CITY METRO AREA CITY SKY/WX TMP DP RH WIND PRES REMARKS Central Park CLOUDY 45 34 65 VRB3 30.02S Wall St Helipt N/A -78 -78 100 W6 N/A WCI-104 Bronx Bot Gard NOT AVBL LaGuardia APRT CLOUDY 46 34 62 NW13 29.99S Kennedy INTL PTSUNNY 49 33 54 NW13 30.00R Breezy Point N/A 45 N/A N/A N10 N/A Newark/Liberty CLOUDY 46 34 62 NW12G20 30.00S Teterboro CLOUDY 45 35 68 NW12 29.99S $$ NYZ177-179-078>081-192100- LONG ISLAND NEW YORK CITY SKY/WX TMP DP RH WIND PRES REMARKS Jones Beach N/A 46 N/A N/A NW9 N/A Matinecock PT NOT AVBL Farmingdale CLOUDY 48 35 60 N9 29.97F MacArthur/ISP CLOUDY 48 35 60 N8 29.96F Shirley CLOUDY 47 36 65 N8 29.97S Westhampton MOSUNNY 47 34 60 NW12G20 29.97F Southampton NOT AVBL Bridgehampton NOT AVBL East Hampton N/A 46 34 63 N9 29.95S Montauk N/A 46 36 68 NW9 29.95F $$ NYZ052-065-067-192100- HUDSON VALLEY CITY SKY/WX TMP DP RH WIND PRES REMARKS White Plains PTSUNNY 45 34 65 NW9 29.97S Newburgh PTSUNNY 46 36 66 VRB6 29.98S Montgomery CLOUDY 47 34 60 W7 29.95F Poughkeepsie SUNNY 45 34 65 NW8 29.97S Albany CLOUDY 41 33 73 W10 30.00S $$ NJZ001-105-106-008-010-013-015-019>022-104-192100- NEW JERSEY CITY SKY/WX TMP DP RH WIND PRES REMARKS Newark/Liberty CLOUDY 46 34 62 NW12G20 30.00S Teterboro CLOUDY 45 35 68 NW12 29.99S Caldwell CLOUDY 44 34 67 NW6 30.00F Somerville CLOUDY 45 34 65 VRB5 29.99F Linden CLOUDY 45 34 65 N8 30.01S Sussex CLOUDY 42 33 70 NW6 30.00S Andover N/A 41 33 73 VRB5 29.99F Trenton CLOUDY 44 35 70 N10 30.01F Millville CLOUDY 49 37 63 NW8 30.00F Atlantic City CLOUDY 50 36 58 NW9 30.00F Wrightstown CLOUDY 46 36 68 N9 29.98F Toms River CLOUDY 47 36 65 W10 30.00F Belmar CLOUDY 46 36 68 W8 30.00S $$ PAZ047>061-062-071-192100- EASTERN PENNSYLVANIA CITY SKY/WX TMP DP RH WIND PRES REMARKS Philadelphia CLOUDY 47 35 63 N9G21 30.02F Allentown CLOUDY 46 33 60 NW6 30.01F Scranton CLOUDY 40 34 79 NW6 29.99F $$ CTZ002-004>006-009-010-012-RIZ004-006-007-MAZ004-011-015-192100- SOUTHERN NEW ENGLAND IN CT CITY SKY/WX TMP DP RH WIND PRES REMARKS Bradley INTL PTSUNNY 45 32 60 N10 29.96S Hartford PTSUNNY 46 33 60 N8 29.96S Danbury CLOUDY 45 33 63 NW6 29.97S Wtrbury/Oxford PTSUNNY 45 30 57 NW9 29.97S Bridgeport CLOUDY 49 34 56 NW9 29.97S Meriden PTSUNNY 48 32 53 N8 29.96S New Haven PTSUNNY 47 34 60 NW14 29.96S Chester N/A 46 34 61 NW6 29.94F Groton PTSUNNY 49 34 56 N12 29.94F Wilimantic PTSUNNY 47 35 63 NW5 29.96S IN RI CITY SKY/WX TMP DP RH WIND PRES REMARKS Providence PTSUNNY 46 33 60 NW6 29.94S Block Island NOT AVBL Westerly CLOUDY 48 32 53 NW7 29.95S IN MA CITY SKY/WX TMP DP RH WIND PRES REMARKS Boston PTSUNNY 44 33 65 NW13 29.95R Worcester CLOUDY 39 30 70 NW8 29.92S WCI 33 Westfield CLOUDY 42 33 70 NW8 29.96R Provincetown SUNNY 42 37 82 NW8 29.94S Nantucket SUNNY 44 35 70 NW8 29.93S $$ ANZ330-335-338-340-345-350-353-355-192100- COASTAL MARINE OBSERVATIONS STATION/POSITION TIME SKY/WX TEMP WIND PRES VSBY WAVE AIR SEA DIR/SP/G HT/PER (UTC) (F) (DEG/KT/KT) (MB) (MI) (FT/S) NY HARB ENTRANCE 1850 46 45 290/ 8/ 10 1015.3 4/11 20 S FIRE ISLAND 1850 44 46 290/ 8/ 10 1015.1 5/10 GREAT SOUTH BAY NOT AVBL 23 SSW MONTAUK P 1850 44 48 300/ 14/ 17 1015.2 5/10 15 E BARNEGAT LI 1930 48 N/A 6/10 HUDSON CANYON 1850 46 51 1015.1 8/11 KINGS POINT 1948 43 39 1015.4 EXECUTION ROCKS 1945 44 320/ 8/ 10 N/A CENTRAL LI SOUND 1930 43 280/ 6/ 8 N/A 1 EASTERN LI SOUND NOT AVBL ROBBINS REEF 1948 44 330/ 10/ 15 1016.0 $$ >>>>>>>>>>>>>>>>>>>>>>>>>>>> KEY <<<<<<<<<<<<<<<<<<<<<<<<<<< > < > SKY/WX - Sky Condition/Present Weather < > TMP - Temperature in Fahrenheit < > DP - Dew Point in Fahrenheit < > RH - Relative Humidity in Percent < > WIND - Direction (from) and Speed in MPH < > PRES - Mean Sea Level Pressure (inches of Hg) < > WCI - Wind Chill Index < > VSB - VISIBILITY IN MILES < > HX - HEAT INDEX < > TC - TEMPERATURE IN CELSIUS < > VRB - VARIABLE WIND DIRECTION < > < >>>>>>>>>>>>>>>>>>>>>>>>>>>> KEY <<<<<<<<<<<<<<<<<<<<<<<<<<<

USA.gov is the U.S. government's official web portal to all federal, state and local government web resources and services.